Location: Weatherford
(35.5260°N, 98.7070°W)
Time: 08:57:17
(UTC-05:00)

OPAL - Visible Passes

Search period start: 23 April 2014 00:00
Search period end: 03 May 2014 00:00
Orbit: 745 x 796 km, 100.2° (Epoch: 22 April)

Date Brightness Start Highest point End Pass type
(mag) Time Alt. Az. Time Alt. Az. Time Alt. Az.
23 Apr 9.2 03:19:31 28° N 03:19:31 28° N 03:22:01 10° N visible
24 Apr 9.7 02:43:41 22° NE 02:43:41 22° NE 02:46:13 10° NNE visible
24 Apr 9.4 04:23:59 17° NW 04:23:59 17° NW 04:25:23 10° NW visible
25 Apr 10.3 02:07:51 11° NE 02:07:51 11° NE 02:09:02 10° NE visible
25 Apr 9.0 03:48:09 30° NNW 03:48:09 30° NNW 03:50:40 10° NNW visible
26 Apr 9.1 03:12:19 32° NNE 03:12:19 32° NNE 03:15:21 10° N visible
26 Apr 9.7 04:52:37 11° NW 04:52:37 11° NW 04:52:58 10° NW visible
27 Apr 9.7 02:36:29 20° NE 02:36:29 20° NE 02:39:22 10° NNE visible
27 Apr 9.1 04:16:47 24° NW 04:16:47 24° NW 04:18:59 10° NNW visible
28 Apr 8.6 03:40:57 39° NNW 03:40:57 39° NNW 03:44:06 10° NNW visible
29 Apr 9.0 03:05:07 33° NE 03:05:07 33° NE 03:08:38 10° N visible
29 Apr 9.4 04:45:25 16° WNW 04:45:25 16° WNW 04:46:50 10° NW visible
30 Apr 9.9 02:29:17 18° ENE 02:29:17 18° ENE 02:32:25 10° NNE visible
30 Apr 8.6 04:09:35 32° NW 04:09:35 32° NW 04:12:33 10° NNW visible
01 May 8.3 03:33:45 48° N 03:33:45 48° N 03:37:30 10° N visible
02 May 9.1 02:57:55 30° NE 02:57:55 30° NE 03:01:53 10° N visible
02 May 9.0 04:38:12 21° WNW 04:38:12 21° WNW 04:40:34 10° NW visible
